Location: Bosmont
(49.7318°N, 3.8587°E)
Time: 07:24:25
(UTC+00:00)

SPOT 1/Viking Rocket - Pass Details

Date: 08 February 2023
Orbit: 777 x 792 km, 98.3° (Epoch: 22 March)

Event Time Altitude Azimuth Distance (km) Brightness Sun altitude
Exits shadow 19:06:49 31° 34° (NE) 1,359 4.5 -22.3°
Drops below altitude 10° 19:10:09 10° 0° (N) 2,340 6.0 -22.8°
Sets 19:12:38 0° 352° (N) 3,272 6.9 -23.2°
